{"data":{"norad_id":54125,"intl_designator":"2022-138N","name":"ONEWEB-0507","alt_names":[],"object_type":"PAYLOAD","status":"ACTIVE","operator":null,"country":"UK","launch_date":"2022-10-22","launch_site_code":"SRILR","launch_vehicle":null,"mission":null,"orbit_class":"UNKNOWN","rcs_meters":null,"size_class":null,"mass_kg":null,"dimensions":null,"purposes":["comms"],"wikipedia_slug":null,"has_3d_model":false,"image_url":null,"decayed_at":null,"tle_current":{"epoch":"2026-05-25T03:32:57.054048Z","epoch_age_seconds":63062,"freshness":"FRESH","line1":"1 54125U 22138N   26145.14788257  .00000005  00000+0 -19751-4 0  9995","line2":"2 54125  87.9150 309.5692 0001661  88.8320 271.3003 13.19726303173817","mean_motion":13.19726303,"eccentricity":0.0001661,"inclination_deg":87.915,"raan_deg":309.5692,"arg_perigee_deg":88.832,"mean_anomaly_deg":271.3003,"bstar":-1.9751e-5,"rev_number":17381,"period_min":109.11353336874,"perigee_km":1184.5092090848,"apogee_km":1187.0219375197,"semimajor_km":7563.9025733022,"source":"CELESTRAK","updated_at":"2026-05-25T13:38:22.586844Z"}}}